AO-07 1 07530U 74089B 14302.91799772 -.00000012 00000-0 19841-3 0 1075 2 07530 101.4899 280.3934 0012218 033.4781 356.3819 12.53608464828404 FO-29 1 24278U 96046B 14303.49522175 .00000031 00000-0 70283-4 0 5066 2 24278 098.5161 298.6871 0349525 306.6531 223.4854 13.53034466898961 SO-33 1 25509U 98061B 14302.92358626 .00000783 00000-0 13954-3 0 8718 2 25509 031.4332 116.8833 0349306 214.9692 302.5892 14.29713181836448 RS-22 1 27939U 03042A 14303.51510465 .00000976 00000-0 18844-3 0 9953 2 27939 097.8215 111.0481 0013791 042.8083 353.7789 14.65457633592547 HO-68 1 36122U 09072B 14303.58852907 -.00000025 00000-0 47940-4 0 747 2 36122 100.2320 351.2384 0006842 287.1453 239.7081 13.16319707234243 AO-73 1 39444U 13066AE 14302.76371146 .00003609 00000-0 48116-3 0 2955 2 39444 097.7617 008.7802 0061954 164.9668 195.3404 14.78879988 49359 EO-79 1 40025U 14033R 14303.75271613 .00004569 00000-0 53165-3 0 3918 2 40025 097.9686 198.6087 0011802 213.5741 146.4760 14.85750623 19719 UO-11 1 14781U 84021B 14303.22907983 .00001413 00000-0 18514-3 0 6502 2 14781 097.8362 000.6164 0010134 101.9818 258.2532 14.81849994647968 AO-16 1 20439U 90005D 14302.85097920 .00000228 00000-0 10010-3 0 1609 2 20439 098.5180 237.7124 0012010 119.6222 310.1057 14.32414948293768 LO-19 1 20442U 90005G 14302.80463141 .00000217 00000-0 95537-4 0 953 2 20442 098.4892 237.9165 0013015 109.5853 250.6738 14.32613581293951 AO-27 1 22825U 93061C 14303.47783606 .00000267 00000-0 12119-3 0 8081 2 22825 098.6780 248.9303 0007356 258.6672 215.4002 14.29770998100118 IO-26 1 22826U 93061D 14302.93264082 .00000267 00000-0 12068-3 0 5657 2 22826 098.6721 248.5857 0007933 251.9778 108.0540 14.30076588100174 GO-32 1 25397U 98043D 14302.83792331 .00000113 00000-0 68286-4 0 4866 2 25397 098.4874 255.9181 0000129 241.0486 171.2511 14.23476536847026 NO-44 1 26931U 01043C 14302.73774462 .00000214 00000-0 11435-3 0 7407 2 26931 067.0535 051.4780 0007506 273.4730 086.5512 14.30178863682844 SO-50 1 27607U 02058C 14303.17699820 .00001801 00000-0 28497-3 0 5618 2 27607 064.5565 180.7726 0063563 335.6788 024.1316 14.74070764637372 CO-55 1 27844U 03031E 14302.98908076 .00000469 00000-0 23386-3 0 589 2 27844 098.6984 309.8263 0008879 241.8778 171.0433 14.21598294587735 CO-57 1 27848U 03031J 14303.02593829 .00000393 00000-0 20062-3 0 17 2 27848 098.7080 309.6473 0008719 249.3476 173.3113 14.21273912587657 AO-51 1 28375U 04025K 14302.80459614 .00000427 00000-0 13980-3 0 9800 2 28375 098.2656 245.2252 0081795 305.9651 053.3972 14.41478212543290 CP3 1 31129U 07012N 14302.89734635 .00002530 00000-0 56152-3 0 8868 2 31129 097.9507 274.1869 0096707 312.0170 099.5945 14.55050907399621 CO-65 1 32785U 08021C 14303.21668172 .00003996 00000-0 46488-3 0 1037 2 32785 097.6836 349.9836 0015269 104.1711 300.2029 14.85763247352076 PRISM 1 33493U 09002B 14303.70145694 .00004425 00000-0 45763-3 0 4392 2 33493 098.2549 125.2631 0017578 004.8322 125.6548 14.90548423312353 SOHLA-1 1 33496U 09002E 14302.83145047 .00000788 00000-0 13684-3 0 5015 2 33496 098.1861 064.2300 0006890 165.9664 346.7456 14.70976535309302 TISAT-1 1 36799U 10035E 14303.72925353 .00003485 00000-0 40000-3 0 6837 2 36799 098.0180 036.7976 0012780 236.2545 277.4063 14.86471677232844 STUDSAT 1 36801U 10035G 14302.94171906 .00029025 00000-0 23119-2 0 9204 2 36801 098.0438 046.9436 0006569 203.1562 291.6965 15.00295830233301 ALMASAT-1 1 38078U 12006B 14303.12929521 .00067695 38572-5 13172-2 0 1976 2 38078 069.4655 092.0644 0564736 212.1339 274.6374 14.57821836141240 XATCOBEO 1 38082U 12006F 14243.34478676 .13583328 43697-5 37939-3 0 5637 2 38082 069.3815 097.0364 0033293 225.1799 135.4582 16.41261006136239 CUBEBUG-1 1 39153U 13018D 14303.22659320 .00003696 00000-0 51662-3 0 6077 2 39153 098.0348 023.2259 0016505 275.7093 084.2236 14.78145957 81496 ESTCUBE-1 1 39161U 13021C 14303.66593845 .00001488 00000-0 25429-3 0 6166 2 39161 098.0909 023.5323 0009087 331.0451 029.0250 14.70339044 79498 DUCHIFAT-1 1 40021U 14033M 14303.67070005 .00006332 00000-0 72880-3 0 3945 2 40021 097.9685 198.5887 0012769 214.2771 145.7708 14.86043182 19692 NANOSATCBR1 1 40024U 14033Q 14303.27698177 .00005483 00000-0 63483-3 0 3855 2 40024 097.9660 198.1429 0011258 213.8385 146.2139 14.85868859 19637 DTUSAT-2 1 40030U 14033W 14303.65114470 .00004668 00000-0 54808-3 0 3836 2 40030 097.9649 198.4165 0011337 203.6392 156.4311 14.85373406 19694 ANTELSAT 1 40034U 14033AA 14303.72961645 .00003316 00000-0 52543-3 0 3925 2 40034 097.9661 195.6299 0061772 133.2236 227.4162 14.71603296 19536 MET-2/21 1 22782U 93055A 14302.79829966 .00000083 00000-0 61991-4 0 2128 2 22782 082.5507 066.4918 0021337 245.3008 270.0512 13.83749575 68735 OKEAN-4 1 23317U 94066A 14303.13160975 .00003034 00000-0 34456-3 0 6952 2 23317 082.5365 301.3866 0020637 017.4371 099.4016 14.85849102 83142 NOAA-14 1 23455U 94089A 14303.43885519 .00000130 00000-0 91470-4 0 9600 2 23455 098.7716 024.4261 0009539 021.5160 034.7325 14.13995611 23064 NOAA-15 1 25338U 98030A 14303.45867294 .00000285 00000-0 13951-3 0 4001 2 25338 098.7617 297.1206 0011744 114.3792 011.8756 14.25494770856114 RESURS 1 25394U 98043A 14302.95015015 .00000119 00000-0 69481-4 0 7961 2 25394 098.4322 261.7663 0001140 172.2829 228.8851 14.24409720847502 FENGYUN1 1 25730U 99025A 14303.47293697 .00003065 00000-0 16834-2 0 2856 2 25730 098.9230 263.8189 0023308 084.9804 035.6289 14.12332125796612 OKEAN-0 1 25860U 99039A 14302.93437101 .00001117 00000-0 17164-3 0 4031 2 25860 098.0619 266.1450 0001336 083.1268 342.0768 14.75507088822020 NOAA-16 1 26536U 00055A 14303.25563882 .00000008 00000-0 28404-4 0 8980 2 26536 098.9752 004.0982 0011143 158.6749 201.4889 14.13049547727182 NOAA-17 1 27453U 02032A 14303.45025956 .00000316 00000-0 15306-3 0 7878 2 27453 098.3224 296.0960 0012772 134.3122 225.9108 14.24802375641945 NOAA-18 1 28654U 05018A 14303.44960447 .00000365 00000-0 22455-3 0 3122 2 28654 099.1637 285.7688 0013460 242.6331 228.1889 14.12086114486656 NOAA-19 1 33591U 09005A 14303.50793944 .00000242 00000-0 15695-3 0 4438 2 33591 098.9600 248.2280 0015130 097.5864 013.0304 14.11793067295084 HUBBLE 1 20580U 90037B 14303.38714120 .00004767 00000-0 30692-3 0 1462 2 20580 028.4697 228.0463 0002993 294.7248 012.8548 15.06048498145112 ISS 1 25544U 98067A 14303.84410568 .00021771 00000-0 37755-3 0 3281 2 25544 051.6437 147.1215 0003495 343.4607 092.7870 15.50800946912370 CO-58 1 28895U 05043F 14302.76499696 .00001418 00000-0 29030-3 0 9104 2 28895 097.8253 137.6085 0016251 308.5398 051.4347 14.62142584479910 FALCON 1 30776U 07006E 14302.63119013 .00013341 00000-0 63457-3 0 9923 2 30776 035.4295 000.3100 0001346 078.4620 053.4770 15.18429010421169 MAST 1 31126U 07012K 14302.88824557 .00001890 00000-0 42099-3 0 1919 2 31126 097.9306 276.8841 0090358 294.5715 124.8905 14.55528476399987 CAPE1 1 31130U 07012P 14302.90204002 .00002158 00000-0 48297-3 0 1963 2 31130 097.9520 273.7253 0097301 313.5113 045.8028 14.54777828399391 COMPASS 1 32787U 08021E 14302.70434287 .00004154 00000-0 44939-3 0 866 2 32787 097.6858 352.3224 0015125 097.1487 263.1450 14.88722826352192 AAUSAT2 1 32788U 08021F 14303.11175387 .00006052 00000-0 63929-3 0 742 2 32788 097.6869 353.8756 0014481 093.9822 266.3051 14.89521691352327 DO-64 1 32789U 08021G 14303.43384499 .00013753 00000-0 12541-2 0 1193 2 32789 097.7059 002.0639 0012566 077.5768 348.1827 14.95164668352696 CO-66 1 32791U 08021J 14303.12411825 .00004828 00000-0 54092-3 0 680 2 32791 097.6852 351.2005 0015730 099.9627 260.3365 14.87211867352106 RS-30 1 32953U 08025A 14303.46122273 .00000042 00000-0 23489-3 0 4210 2 32953 082.4992 117.1071 0018630 219.7149 199.5231 12.43052238292066 METEOR-M 1 35865U 09049A 14303.64192238 .00000103 00000-0 65856-4 0 321 2 35865 098.5344 346.8403 0003415 077.5201 079.1098 14.21943913265582 RS-38 1 35869U 09049E 14303.65033409 .00000060 00000-0 46289-4 0 9364 2 35869 098.5264 346.5853 0005521 070.5775 088.7958 14.22238105265629 JUGNU 1 37839U 11058B 14302.98566597 .00000570 00000-0 16246-3 0 7251 2 37839 019.9600 157.9332 0018920 029.8813 080.5190 14.12359877157630 SRMSAT 1 37841U 11058D 14303.72305839 .00000442 00000-0 98619-4 0 7283 2 37841 019.9705 175.5118 0011829 332.5635 071.1314 14.10392219157510 RAX-2 1 37853U 11061D 14303.16680156 .00010101 00000-0 66762-3 0 9497 2 37853 101.7027 037.3007 0210512 025.7994 037.5224 14.91365550162767 AUBIESAT 1 37854U 11061E 14302.83528023 .00009481 00000-0 60662-3 0 9475 2 37854 101.7075 039.1688 0207646 023.1475 093.3132 14.92898057162780 HRBE 1 37855U 11061F 14302.86922993 .00008730 00000-0 56724-3 0 9675 2 37855 101.7072 038.3599 0210113 024.7414 336.3694 14.92085279162746 RS-39 1 38051U 11062C 14288.65876392 .70201582 12497-4 27925-2 0 413 2 38051 051.5964 324.1908 0006422 269.6897 186.8903 16.43533377153081 E-STAR 1 38079U 12006C 14303.55464631 .00203167 13327-4 15232-2 0 468 2 38079 069.4382 348.5051 0245870 156.9550 353.0179 15.41840140144032 GOLIAT 1 38085U 12006J 14303.29561095 .00225247 14683-4 19337-2 0 4955 2 38085 069.4428 000.1778 0283406 162.6568 198.4538 15.31907481143701 HORYU-2 1 38340U 12025D 14302.81764176 .00003501 00000-0 55196-3 0 87 2 38340 098.2818 262.4488 0013792 106.8357 253.4364 14.73036607131607 RS-40 1 38735U 12041C 14302.75026727 .00000004 00000-0 -39977-4 0 7251 2 38735 082.4785 203.6403 0016663 325.4940 034.5056 12.42562509102281 PROITERES 1 38756U 12047B 14303.65672770 .00000917 00000-0 14346-3 0 3592 2 38756 098.2266 034.1647 0011358 314.1853 045.8421 14.75217277115141 BEESAT-3 1 39134U 13015E 14302.72413250 .00013341 00000-0 88206-3 0 7542 2 39134 064.8750 072.2569 0036064 285.6164 074.0978 15.07099964 83910 BEESAT-2 1 39136U 13015G 14302.98360187 .00012981 00000-0 87849-3 0 7385 2 39136 064.8752 072.3781 0036265 285.5707 074.1411 15.06246395 83932 LO-75 1 39382U 13064C 14295.69194059 .07301741 00000-0 36367-2 0 4875 2 39382 040.4713 030.2705 0002289 341.7175 018.4586 16.19795749470823 ZACUBE-1 1 39417U 13066B 14302.73315903 .00002963 00000-0 39900-3 0 4529 2 39417 097.7618 008.6663 0062286 165.3315 194.9722 14.78583426 50570 TRITON-1 1 39427U 13066M 14302.75754767 .00002708 00000-0 45653-3 0 3042 2 39427 097.7495 001.7615 0117710 181.4780 178.6094 14.65766960 50105 DELFIN3XT 1 39428U 13066N 14302.72791048 .00004177 00000-0 71758-3 0 3073 2 39428 097.7488 000.5616 0127598 184.7994 175.1997 14.63911984 50014 GOMX-1 1 39430U 13066Q 14303.59977771 .00002127 00000-0 40806-3 0 9407 2 39430 097.7434 357.9898 0155741 191.8789 167.8722 14.57197172 49932 MO-76 1 39436U 13066W 14303.14427767 .00032932 00000-0 30674-2 0 3894 2 39436 097.7679 014.8757 0024961 160.8847 199.3315 14.93948049 50995 LO-74 1 39440U 13066AA 14302.74856828 .00002681 00000-0 39764-3 0 2996 2 39440 097.7575 005.9364 0084084 170.8961 189.3796 14.73491904 50397 PUCPSAT-1 1 39442U 13066AC 14303.14349223 .00006513 00000-0 72837-3 0 2995 2 39442 097.7677 013.3562 0034927 159.7446 200.5165 14.86808568 49677 SHINAISAT 1 39572U 14009A 14303.56337685 .00275524 36345-4 70120-3 0 3698 2 39572 064.9988 287.3158 0016386 284.7534 075.1815 15.94946933 38453 TEIKYOSAT 1 39576U 14009E 14297.85867254 .09345816 76764-5 25176-3 0 4374 2 39576 064.9818 300.5833 0008491 317.3597 044.3862 16.45008906 37698 CO-77 1 39577U 14009F 14244.78324653 .10543803 76292-5 32273-3 0 3795 2 39577 064.9920 123.7668 0014904 269.7208 091.1897 16.43552757 29380 SPROUT 1 39770U 14029E 14303.10268024 .00002825 00000-0 35433-3 0 1772 2 39770 097.8751 038.2155 0009200 227.5175 132.5261 14.82945897 23528 POPSAT-HIP1 1 40028U 14033U 14303.76720004 .00004738 00000-0 55309-3 0 4084 2 40028 097.9697 198.6515 0013295 208.1954 151.8558 14.85587982 19704 EO-80 1 40032U 14033Y 14303.65310091 .00004408 00000-0 51822-3 0 3964 2 40032 097.9682 198.4255 0011363 205.3736 154.6935 14.85344695 19693 VELOX-1 1 40057U 14034E 14303.74234046 .00004378 00000-0 66652-3 0 3959 2 40057 098.2399 013.0258 0010404 250.0223 109.9869 14.74439354 18050 DAURIA DX 1 1 40071U 14037C 14303.74847775 .00002087 00000-0 28521-3 0 3674 2 40071 098.3875 000.4508 0007294 255.8871 104.1518 14.79727283 16859 UKUBE-1 1 40074U 14037F 14303.74393282 .00004273 00000-0 56129-3 0 3692 2 40074 098.3883 000.6316 0003519 266.6115 093.4690 14.80816111 16860 CHASQUI-1 1 40117U 98067ET 14303.84847218 .00135129 00000-0 15376-2 0 2376 2 40117 051.6449 144.8551 0008051 218.8645 244.3456 15.61300134 11374 /EX
